[[{"header":{"parameterUnit":"m.s-1","parameterCategory":1,"la1":30.2991,"la2":30.254,"lo1":-89.0895,"lo2":-89.0444,"dy":0.0017,"dx":0.0017,"nx":28,"ny":28,"refTime":"2025-11-15T03:00:00:Z","depth":0,"parameterNumber":2,"parameterNumberName":"U-component_of_WINDS"},"data":[0,0,0,0,0,0,0,0,0,0,0,0,0,0,0,0,0,0,0,0,0,0,0,0,0,0,0,0,0,0,0,0,0,0,0,0,0,0,0,0,0,0,0,0,0,0,0,0,0,0,0,0,0,0,0,0,0,0,1.0448,1.0447,0,1.0415,1.0415,1.0414,1.0383,1.0382,1.0382,1.0382,1.0348,1.0347,1.0347,0,0,0,0,0,0,0,0,0,0,0,0,0,1.0481,1.048,1.0448,1.0447,1.0447,1.0415,1.0415,1.0414,1.0383,1.0382,1.0382,1.0381,1.0348,1.0347,1.0347,0,0,0,0,0,0,0,0,0,0,0,0,0,1.0459,1.048,1.0448,1.0427,1.0425,1.0415,1.0415,1.0414,1.0383,1.0382,1.0382,1.0381,1.0348,1.0347,1.0347,1.0354,0,0,1.0344,1.0344,0,0,0,0,0,0,0,0,1.046,1.0458,1.0431,1.0429,1.0426,1.0402,1.0414,1.0394,1.0383,1.0399,1.0382,1.0381,1.0366,1.0364,1.0359,1.0353,1.0351,1.0344,1.0344,1.0343,1.0343,0,0,0,0,0,0,0,1.0462,1.0459,1.0435,1.043,1.0428,1.0419,1.0415,1.041,1.0387,1.0398,1.0395,1.0392,1.0365,1.036,1.0358,1.0351,1.0344,1.0344,1.0343,1.0343,1.0346,1.0346,0,0,0,0,0,0,1.0467,1.0461,1.0436,1.0434,1.0442,1.0419,1.0415,1.0411,1.0387,1.0382,1.0392,1.039,1.0362,1.0359,1.0357,1.0363,1.0343,1.0343,1.0342,1.0345,1.0346,1.0347,0,0,0,0,0,0,1.0468,1.0465,1.0437,1.0447,1.0442,1.0419,1.0415,1.041,1.0405,1.0383,1.0378,1.0392,1.0361,1.0358,1.0355,1.0361,1.0342,1.0342,1.0345,1.0346,1.0346,1.0375,0,0,0,0,0,0,1.0469,1.0465,1.0468,1.0447,1.0442,1.0436,1.0415,1.041,1.0404,1.0401,1.0381,1.0377,1.036,1.0356,1.0354,1.036,1.0341,1.0344,1.0345,1.0346,1.0373,1.0377,1.0379,0,0,0,0,0,1.047,1.0478,1.0469,1.0466,1.0446,1.0436,1.0434,1.0415,1.0405,1.0407,1.0392,1.0377,1.0361,1.0356,1.0353,1.0359,1.0344,1.0345,1.0346,1.0372,1.0376,1.0379,0,0,0,0,0,0,1.0501,1.0475,1.0464,1.0466,1.0454,1.0431,1.0434,1.042,1.041,1.0408,1.0385,1.038,1.0379,1.0369,1.0364,1.0364,1.035,1.0351,1.0371,1.0374,1.0377,1.0379,1.034,0,0,0,0,0,1.0508,1.0504,1.0481,1.0484,1.0479,1.0457,1.0453,1.0439,1.0425,1.042,1.0405,1.0392,1.0383,1.0378,1.0369,1.0372,1.0366,1.0374,1.0377,1.038,1.0381,1.0379,1.0382,1.0351,1.0351,1.0351,0,0,1.0523,1.0508,1.0506,1.049,1.0479,1.0474,1.0453,1.0449,1.0444,1.0419,1.0415,1.0403,1.0387,1.0386,1.0384,1.0377,1.0388,1.0381,1.0384,1.0383,1.038,1.0383,1.0386,1.0352,1.0351,1.0351,0,0,1.0547,1.0536,1.0536,1.0525,1.0509,1.0494,1.0494,1.0473,1.0465,1.046,1.044,1.0434,1.0421,1.0409,1.0402,1.0419,1.0405,1.0417,1.0433,1.0432,1.0434,1.0436,1.0441,1.0443,1.0418,1.0418,1.0418,0,1.0567,1.0558,1.0538,1.0535,1.0527,1.0504,1.0504,1.0494,1.0476,1.0471,1.0463,1.0444,1.0432,1.0426,1.043,1.0426,1.0424,1.0419,1.0435,1.0437,1.0439,1.0443,1.0445,1.042,1.0419,1.0419,1.0419,0,1.0583,1.0578,1.058,1.0562,1.0555,1.0554,1.0532,1.0528,1.0514,1.0501,1.0495,1.0479,1.0465,1.0463,1.0451,1.0456,1.0451,1.044,1.0425,1.0444,1.0447,1.0449,1.0422,1.0421,1.0421,1.042,0,0,1.0626,1.0596,1.0597,1.0588,1.0567,1.0562,1.0559,1.0545,1.0541,1.0529,1.0524,1.0512,1.0501,1.0492,1.0478,1.0477,1.049,1.0465,1.0464,1.0469,1.0492,1.0501,1.0503,1.048,1.048,1.0481,1.0493,0,1.0645,1.0638,1.0619,1.0617,1.0611,1.0588,1.0585,1.0571,1.0558,1.055,1.0535,1.0526,1.0513,1.0507,1.0505,1.0489,1.0494,1.0488,1.0475,1.0474,1.0478,1.0505,1.0514,1.0527,1.0495,1.0495,1.0495,0,1.0666,1.0655,1.0652,1.063,1.0627,1.0624,1.061,1.0603,1.0586,1.0577,1.0566,1.055,1.0544,1.0531,1.0521,1.0517,1.0511,1.0502,1.0502,1.0499,1.0485,1.0502,1.0531,1.0532,1.0497,1.0497,1.0497,0,1.0696,1.068,1.0676,1.0669,1.0643,1.0642,1.0631,1.0614,1.0607,1.0594,1.0588,1.0575,1.0568,1.0557,1.0537,1.053,1.0529,1.0515,1.052,1.052,1.052,1.052,1.0547,1.0518,1.0518,1.0518,1.0518,0,1.0718,1.0717,1.0688,1.0686,1.0683,1.0662,1.066,1.0647,1.0631,1.0625,1.0605,1.0599,1.0574,1.0565,1.0549,1.0542,1.0539,1.053,1.0526,1.0531,1.0532,1.0526,1.0524,1.0518,1.0518,1.0518,1.0518,0,1.0751,1.0732,1.0725,1.0702,1.0695,1.0695,1.0674,1.067,1.0655,1.0647,1.0644,1.062,1.0608,1.0587,1.057,1.0559,1.0555,1.0549,1.0561,1.0558,1.0563,1.0563,1.0586,1.0588,1.0559,1.0559,1.0559,0,1.0766,1.0765,1.074,1.0735,1.0725,1.0716,1.0708,1.0686,1.0679,1.0659,1.0657,1.0643,1.0632,1.0613,1.0594,1.058,1.0572,1.0581,1.057,1.0575,1.057,1.057,1.0569,1.0584,1.0584,1.0585,1.0585,0,1.0795,1.0785,1.0775,1.0761,1.0752,1.074,1.0727,1.0723,1.0697,1.069,1.0678,1.0668,1.065,1.0636,1.0619,1.0607,1.0591,1.0589,1.0589,1.0594,1.0601,1.0596,1.0567,1.0588,1.0588,1.0588,1.0587,1.0587,1.0818,1.0815,1.0797,1.0786,1.0773,1.0761,1.0756,1.074,1.0729,1.0713,1.07,1.0688,1.067,1.0645,1.0634,1.0623,1.0616,1.0617,1.0617,1.0617,1.0618,1.0603,1.062,1.062,1.062,1.062,1.062,0,1.0844,1.0831,1.0821,1.0803,1.0794,1.078,1.0764,1.0757,1.0747,1.0732,1.072,1.0705,1.0691,1.0671,1.0655,1.0651,1.0643,1.0647,1.0647,1.0644,1.0626,1.0627,1.0653,1.0653,1.0653,1.0653,1.0653,1.0653,1.0856,1.085,1.0838,1.0825,1.0812,1.08,1.0792,1.078,1.0768,1.0752,1.074,1.0727,1.0709,1.0691,1.0677,1.0672,1.0666,1.0672,1.0664,1.0648,1.0645,1.0642,1.0643,1.0672,1.0672,1.0682,1.0682,1.0682]},{"header":{"parameterUnit":"m.s-1","parameterCategory":1,"la1":30.2991,"la2":30.254,"lo1":-89.0895,"lo2":-89.0444,"dy":0.0017,"dx":0.0017,"nx":28,"ny":28,"refTime":"2025-11-15T03:00:00:Z","depth":0,"parameterNumber":3,"parameterNumberName":"V-component_of_WINDS"},"data":[0,0,0,0,0,0,0,0,0,0,0,0,0,0,0,0,0,0,0,0,0,0,0,0,0,0,0,0,0,0,0,0,0,0,0,0,0,0,0,0,0,0,0,0,0,0,0,0,0,0,0,0,0,0,0,0,0,0,1.0308,1.0307,0,1.0238,1.0237,1.0237,1.0191,1.0191,1.0191,1.019,1.0115,1.0114,1.0112,0,0,0,0,0,0,0,0,0,0,0,0,0,1.0398,1.0397,1.0308,1.0307,1.0306,1.0238,1.0237,1.0236,1.0191,1.0191,1.019,1.019,1.0116,1.0114,1.0112,0,0,0,0,0,0,0,0,0,0,0,0,0,1.0347,1.0397,1.0308,1.0275,1.0272,1.0239,1.0237,1.0236,1.0191,1.0191,1.019,1.019,1.0117,1.0114,1.0112,1.0104,0,0,1.0104,1.0103,0,0,0,0,0,0,0,0,1.035,1.0344,1.0281,1.0278,1.0274,1.0223,1.0242,1.0192,1.0191,1.0222,1.019,1.019,1.0151,1.0146,1.0134,1.0101,1.0097,1.0103,1.0102,1.0101,1.01,0,0,0,0,0,0,0,1.0354,1.0346,1.028,1.028,1.0276,1.0263,1.0255,1.0232,1.019,1.0219,1.0216,1.0208,1.0149,1.0136,1.0132,1.0096,1.0104,1.0101,1.01,1.0099,1.0054,1.0054,0,0,0,0,0,0,1.0363,1.035,1.0282,1.0278,1.0312,1.0262,1.0253,1.024,1.019,1.0182,1.0209,1.0206,1.0141,1.0135,1.0129,1.0117,1.0101,1.0098,1.0097,1.0053,1.0054,1.0054,0,0,0,0,0,0,1.0365,1.0357,1.0285,1.0313,1.0303,1.0261,1.0246,1.0238,1.0226,1.0182,1.0174,1.0203,1.014,1.0132,1.0111,1.0114,1.0097,1.0095,1.0053,1.0054,1.0054,1.0093,0,0,0,0,0,0,1.0368,1.0358,1.0356,1.0313,1.0302,1.027,1.0246,1.0237,1.0222,1.0218,1.0175,1.0167,1.0139,1.0115,1.0108,1.011,1.0093,1.0053,1.0053,1.0054,1.0092,1.0095,1.0098,0,0,0,0,0,1.0371,1.0369,1.0356,1.0348,1.0298,1.027,1.0263,1.0232,1.0222,1.0219,1.0191,1.0169,1.0115,1.0113,1.0105,1.0106,1.0052,1.0053,1.0054,1.009,1.0094,1.0098,0,0,0,0,0,0,1.0411,1.0362,1.0348,1.0332,1.0306,1.0262,1.0257,1.0237,1.0212,1.021,1.0171,1.0162,1.0144,1.0123,1.0122,1.0096,1.0081,1.008,1.0111,1.0115,1.0118,1.0124,1.0091,0,0,0,0,0,1.0418,1.0401,1.0359,1.0349,1.0336,1.0299,1.0286,1.0264,1.0235,1.0223,1.0194,1.0165,1.0142,1.0127,1.0103,1.0088,1.0078,1.0085,1.0088,1.0091,1.0091,1.0082,1.0084,1.0057,1.0057,1.0057,0,0,1.0432,1.0404,1.0395,1.0356,1.0333,1.0315,1.029,1.0272,1.0258,1.022,1.0198,1.0176,1.0141,1.0124,1.0114,1.0105,1.0096,1.0092,1.0095,1.0093,1.0083,1.0086,1.0088,1.0057,1.0057,1.0057,0,0,1.0449,1.0426,1.0415,1.0393,1.0359,1.0335,1.0332,1.0292,1.0276,1.0254,1.0226,1.0208,1.0168,1.0145,1.0128,1.0137,1.0116,1.013,1.0147,1.0139,1.0141,1.0143,1.0146,1.0148,1.013,1.013,1.013,0,1.047,1.0443,1.0412,1.0396,1.0379,1.0346,1.0334,1.0314,1.0273,1.0263,1.0253,1.0204,1.0178,1.0154,1.0157,1.0144,1.0139,1.0135,1.0143,1.0145,1.0146,1.0149,1.015,1.0132,1.0132,1.0132,1.0131,0,1.0472,1.0453,1.0448,1.0412,1.0395,1.0381,1.0347,1.0333,1.0313,1.0289,1.0267,1.0236,1.0205,1.0197,1.0177,1.0171,1.0167,1.0151,1.0135,1.0151,1.0153,1.0154,1.0135,1.0134,1.0133,1.0133,0,0,1.0511,1.0458,1.0457,1.044,1.0401,1.0385,1.037,1.0341,1.033,1.0304,1.0289,1.0257,1.0243,1.0223,1.02,1.0193,1.0202,1.0178,1.0177,1.0184,1.0194,1.0206,1.0208,1.0188,1.0188,1.0188,1.0197,0,1.0522,1.0494,1.0465,1.0447,1.0429,1.0397,1.0384,1.0358,1.0335,1.0316,1.0291,1.0269,1.0251,1.024,1.0231,1.0203,1.0204,1.0202,1.0174,1.0173,1.0184,1.0209,1.0221,1.0231,1.0197,1.0197,1.0198,0,1.053,1.0507,1.0488,1.0451,1.0442,1.0431,1.0402,1.0385,1.0355,1.0339,1.0318,1.0294,1.0275,1.0261,1.0235,1.0234,1.0221,1.0206,1.0205,1.0201,1.0187,1.0206,1.0233,1.0235,1.0198,1.0198,1.0198,0,1.0561,1.0525,1.0508,1.0495,1.0451,1.0444,1.0425,1.0395,1.038,1.0354,1.0344,1.0317,1.0302,1.028,1.0249,1.0242,1.0226,1.0209,1.0212,1.0213,1.021,1.0211,1.0236,1.0202,1.0202,1.0201,1.0201,0,1.0576,1.0566,1.0522,1.0512,1.0499,1.0466,1.0453,1.0432,1.0405,1.039,1.036,1.0346,1.0305,1.0286,1.0262,1.0244,1.0237,1.0223,1.0217,1.0226,1.0228,1.0217,1.0215,1.0202,1.0202,1.0202,1.0202,0,1.0608,1.0579,1.0559,1.052,1.051,1.0502,1.0468,1.0457,1.0433,1.0414,1.0408,1.037,1.0346,1.0313,1.0278,1.0262,1.0247,1.0237,1.0258,1.0254,1.0259,1.0259,1.0278,1.0279,1.0244,1.0244,1.0245,0,1.062,1.0611,1.0572,1.056,1.0543,1.0524,1.0509,1.0476,1.0461,1.0427,1.042,1.0394,1.0371,1.0335,1.0303,1.0277,1.0266,1.0274,1.0261,1.0271,1.0266,1.0267,1.0266,1.0277,1.0278,1.0278,1.0279,0,1.0644,1.063,1.061,1.0585,1.0568,1.0547,1.0523,1.0515,1.0477,1.0462,1.0438,1.0421,1.0386,1.0361,1.0331,1.031,1.0288,1.0283,1.0282,1.0292,1.0305,1.0298,1.0267,1.0283,1.0282,1.0282,1.0282,1.0282,1.0666,1.0657,1.0628,1.0607,1.0587,1.0566,1.0554,1.0529,1.0509,1.048,1.0461,1.0438,1.0408,1.0365,1.0346,1.0327,1.0318,1.0317,1.0316,1.0317,1.032,1.0308,1.0321,1.0321,1.0321,1.0321,1.032,0,1.0688,1.0669,1.065,1.0619,1.0602,1.0585,1.0558,1.0545,1.0526,1.05,1.048,1.0452,1.0428,1.0395,1.0368,1.0359,1.0349,1.0353,1.0354,1.0349,1.0329,1.0333,1.0363,1.0363,1.0363,1.0363,1.0363,1.0363,1.0698,1.0682,1.0665,1.0639,1.0619,1.0597,1.0584,1.0564,1.0544,1.0516,1.0496,1.0475,1.0447,1.0418,1.0394,1.0385,1.0377,1.0385,1.0373,1.0355,1.0351,1.0347,1.035,1.0383,1.0383,1.0394,1.0394,1.0394]}]]